FW2418 Weather Reports


Display with metric or nautical units.
time (UTC)temp
F
wind
direction
speed
MPH
gust
MPH
rain 1hr
in
rain 24hr
in
rain mn
in
humidity
%
barometer
mb
20260506081513 60 124 0.0 0.0 0.00 0.00 0.00 96 1013.3
20260506080441 60 124 0.0 0.0 0.00 0.00 0.00 96 1013.3
20260506073438 60 124 0.0 0.0 0.00 0.00 0.00 95 1013.6
20260506072437 60 124 0.0 0.0 0.00 0.00 0.00 95 1013.6
20260506071436 60 124 0.0 0.0 0.00 0.00 0.00 95 1013.3
20260506070435 61 124 0.0 0.0 0.00 0.00 0.00 95 1013.3
20260506062401 61 124 0.0 0.0 0.00 0.00 0.00 94 1014.0
20260506061400 62 124 0.0 0.0 0.00 0.00 0.00 94 1014.0
20260506060359 62 124 0.0 0.0 0.00 0.00 0.00 94 1014.0
20260506051252 63 124 0.0 0.0 0.00 0.00 0.00 91 1014.3
20260506050251 63 124 0.0 0.0 0.00 0.00 0.00 91 1014.3
20260506044249 64 124 0.0 0.0 0.00 0.00 0.00 89 1014.7
20260506043248 65 124 0.0 0.0 0.00 0.00 0.00 89 1014.7
20260506042216 65 124 0.0 0.0 0.00 0.00 0.00 88 1014.7
20260506041113 65 124 0.0 0.0 0.00 0.00 0.00 88 1014.7
20260506040112 65 124 0.0 0.0 0.00 0.00 0.00 87 1014.3
20260506035111 65 124 0.0 0.0 0.00 0.00 0.00 86 1014.3
20260506034111 66 124 0.0 0.0 0.00 0.00 0.00 86 1014.3
20260506033039 67 124 0.0 0.0 0.00 0.00 0.00 82 1014.0
20260506032038 67 124 0.0 0.0 0.00 0.00 0.00 83 1014.0
20260506031037 67 124 0.0 0.0 0.00 0.00 0.00 81 1014.0
20260506030036 68 124 0.0 0.0 0.00 0.00 0.00 80 1014.0
20260506025036 68 124 0.0 1.0 0.00 0.00 0.00 79 1014.0
20260506024004 68 139 0.0 1.0 0.00 0.00 0.00 79 1014.0
20260506023003 68 139 0.0 1.0 0.00 0.00 0.00 77 1014.0
20260506022003 69 139 0.0 1.0 0.00 0.00 0.00 76 1014.0
20260506021002 69 93 0.0 1.0 0.00 0.00 0.00 74 1014.0
20260506015929 69 93 1.0 1.0 0.00 0.00 0.00 73 1014.0
20260506014857 69 89 0.0 0.0 0.00 0.00 0.00 73 1014.0
20260506013825 70 89 0.0 0.0 0.00 0.00 0.00 71 1013.6
20260506012824 70 89 0.0 0.0 0.00 0.00 0.00 69 1014.0
20260506011823 71 89 0.0 1.0 0.00 0.00 0.00 67 1013.6
20260506010822 71 89 0.0 1.0 0.00 0.00 0.00 66 1013.6
20260506005821 72 89 0.0 1.0 0.00 0.00 0.00 65 1013.6
20260506004821 72 126 0.0 2.0 0.00 0.00 0.00 64 1013.3
20260506003820 73 125 1.0 2.0 0.00 0.00 0.00 63 1013.3
20260506002819 73 125 1.0 4.0 0.00 0.00 0.00 62 1013.0
20260506001818 74 115 1.0 4.0 0.00 0.00 0.00 61 1013.0
20260506000817 74 53 1.0 5.0 0.00 0.00 0.00 62 1012.9
20260505235745 75 114 2.0 5.0 0.00 0.00 0.00 61 1012.9
20260505234744 76 119 2.0 5.0 0.00 0.00 0.00 60 1012.9
20260505233743 76 80 2.0 6.0 0.00 0.00 0.00 58 1012.9
20260505232742 77 121 2.0 6.0 0.00 0.00 0.00 58 1012.9
20260505231639 77 81 1.0 7.0 0.00 0.00 0.00 56 1012.9
20260505230638 78 76 2.0 5.0 0.00 0.00 0.00 56 1012.9
20260505225638 78 131 2.0 8.0 0.00 0.00 0.00 56 1012.9
20260505224637 78 115 2.0 8.0 0.00 0.00 0.00 55 1012.9
20260505223636 79 122 2.0 7.0 0.00 0.00 0.00 55 1012.9
20260505222635 79 119 2.0 7.0 0.00 0.00 0.00 55 1012.9
20260505221634 79 88 3.0 6.0 0.00 0.00 0.00 54 1012.9
20260505220633 80 66 2.0 6.0 0.00 0.00 0.00 53 1012.9
20260505215632 80 51 3.0 7.0 0.00 0.00 0.00 53 1012.9
20260505214631 80 84 2.0 8.0 0.00 0.00 0.00 52 1012.9
20260505213631 81 77 3.0 7.0 0.00 0.00 0.00 53 1012.9
20260505212630 81 73 3.0 7.0 0.00 0.00 0.00 52 1012.9
20260505211629 82 38 3.0 7.0 0.00 0.00 0.00 52 1012.9
20260505210628 81 82 2.0 8.0 0.00 0.00 0.00 53 1012.6
20260505205627 82 57 3.0 7.0 0.00 0.00 0.00 52 1012.6
20260505204626 82 84 2.0 9.0 0.00 0.00 0.00 53 1012.6
20260505203625 81 45 3.0 8.0 0.00 0.00 0.00 53 1012.6
20260505202522 82 54 2.0 9.0 0.00 0.00 0.00 53 1012.9
20260505201521 82 52 2.0 8.0 0.00 0.00 0.00 52 1012.9
20260505200449 82 60 3.0 9.0 0.00 0.00 0.00 52 1013.3
20260505195448 83 44 4.0 9.0 0.00 0.00 0.00 52 1013.3
20260505194345 82 72 3.0 9.0 0.00 0.00 0.00 54 1013.3
20260505193344 82 30 3.0 11.0 0.00 0.00 0.00 54 1013.3
20260505192344 83 22 2.0 9.0 0.00 0.00 0.00 52 1013.3
20260505191311 84 15 4.0 10.0 0.00 0.00 0.00 51 1013.3
20260505190311 84 26 3.0 9.0 0.00 0.00 0.00 50 1013.3
20260505185309 83 21 2.0 6.0 0.00 0.00 0.00 51 1014.0
20260505184135 85 72 2.0 7.0 0.00 0.00 0.00 49 1013.6
20260505183134 86 28 2.0 8.0 0.00 0.00 0.00 48 1013.6
20260505182133 84 181 2.0 6.0 0.00 0.00 0.00 51 1013.6
20260505181133 84 74 2.0 7.0 0.00 0.00 0.00 51 1014.0
20260505180132 81 66 3.0 8.0 0.00 0.00 0.00 54 1014.3
20260505175131 81 38 3.0 6.0 0.00 0.00 0.00 55 1014.0
20260505174130 81 35 1.0 7.0 0.00 0.00 0.00 55 1014.0
20260505173129 80 92 1.0 7.0 0.00 0.00 0.00 56 1014.3
20260505172128 81 54 3.0 7.0 0.00 0.00 0.00 55 1014.3
20260505171127 82 56 2.0 9.0 0.00 0.00 0.00 55 1014.3
20260505170126 83 54 3.0 10.0 0.00 0.00 0.00 53 1014.3
20260505165125 84 40 3.0 8.0 0.00 0.00 0.00 51 1014.7
20260505164124 84 48 3.0 9.0 0.00 0.00 0.00 52 1014.3
20260505163123 83 122 3.0 7.0 0.00 0.00 0.00 54 1014.3
20260505162123 83 125 2.0 8.0 0.00 0.00 0.00 54 1014.3
20260505161121 82 63 2.0 8.0 0.00 0.00 0.00 54 1014.6
20260505153015 80 58 2.0 6.0 0.00 0.00 0.00 57 1014.3
20260505151943 81 21 2.0 7.0 0.00 0.00 0.00 56 1014.3
20260505150942 81 112 3.0 7.0 0.00 0.00 0.00 55 1014.3
20260505124551 72 55 2.0 4.0 0.00 0.00 0.00 80 1014.0
20260505123551 71 42 2.0 3.0 0.00 0.00 0.00 83 1014.0
20260505122550 69 107 1.0 2.0 0.00 0.00 0.00 86 1014.0
20260505121549 67 105 1.0 1.0 0.00 0.00 0.00 91 1014.0
20260505120548 63 82 1.0 1.0 0.00 0.00 0.00 97 1013.6
20260505115547 60 129 0.0 0.0 0.00 0.00 0.00 98 1013.6
20260505114515 59 129 0.0 0.0 0.00 0.00 0.00 98 1013.9
20260505113514 58 129 0.0 0.0 0.00 0.00 0.00 98 1013.6
20260505112513 57 128 0.0 0.0 0.00 0.00 0.00 98 1013.6
20260505111513 56 128 0.0 0.0 0.00 0.00 0.00 98 1013.3
20260505110512 56 129 0.0 0.0 0.00 0.00 0.00 97 1013.3
20260505101436 56 129 0.0 0.0 0.00 0.00 0.00 97 1013.3
20260505100435 56 129 0.0 0.0 0.00 0.00 0.00 97 1012.9
20260505095434 56 128 0.0 0.0 0.00 0.00 0.00 97 1012.9
20260505094433 56 129 0.0 0.0 0.00 0.00 0.00 97 1012.6
20260505093432 56 128 0.0 0.0 0.00 0.00 0.00 97 1012.9
20260505092431 57 128 0.0 0.0 0.00 0.00 0.00 97 1012.6
20260505091359 57 129 0.0 0.0 0.00 0.00 0.00 97 1012.6
20260505090358 57 129 0.0 0.0 0.00 0.00 0.00 97 1012.6
20260505085358 57 129 0.0 0.0 0.00 0.00 0.00 97 1012.6
20260505084356 57 128 0.0 0.0 0.00 0.00 0.00 97 1012.6
20260505083356 56 128 0.0 0.0 0.00 0.00 0.00 96 1012.6